• In Hungary
  • List of Countries
  • For 7 days
  • Water Temperature
  • Satellite Maps
  • Weather Map
  • News
  • Weather Widgets
  • user-avatar
    Login

    Hourly Weather Dolgie Leski

    Today, 24 October, Wednesday

    Time Temperature Precipitation Wind Pressure Humidity
    00:00 +5°C° 0.1 mm 5 mps 725 mmHg 79%
    01:00 +3°C° 0.1 mm 5 mps 724 mmHg 79%
    02:00 +3°C° 0.1 mm 5 mps 723 mmHg 79%
    03:00 +3°C° 0.1 mm 5 mps 722 mmHg 78%
    04:00 +3°C° 0.2 mm 6 mps 721 mmHg 78%
    05:00 +3°C° 0.2 mm 6 mps 721 mmHg 78%
    06:00 +3°C° 0.2 mm 6 mps 720 mmHg 78%
    07:00 +4°C° 0.1 mm 6 mps 719 mmHg 79%
    08:00 +4°C° 0.1 mm 7 mps 719 mmHg 79%
    09:00 +4°C° 0.1 mm 7 mps 718 mmHg 80%
    10:00 +4°C° 0.5 mm 6 mps 717 mmHg 81%
    11:00 +4°C° 0.5 mm 6 mps 717 mmHg 82%
    12:00 +6°C° 0.5 mm 5 mps 716 mmHg 83%
    13:00 +6°C° 0.2 mm 5 mps 716 mmHg 82%
    14:00 +6°C° 0.2 mm 5 mps 716 mmHg 82%
    15:00 +7°C° 0.2 mm 4 mps 715 mmHg 81%
    16:00 +6°C° 0.3 mm 4 mps 715 mmHg 83%
    17:00 +6°C° 0.3 mm 4 mps 715 mmHg 86%
    18:00 +6°C° 0.3 mm 4 mps 714 mmHg 88%
    19:00 +5°C° 0.4 mm 4 mps 715 mmHg 88%
    20:00 +5°C° 0.4 mm 4 mps 715 mmHg 88%
    21:00 +5°C° 0.4 mm 5 mps 715 mmHg 89%
    22:00 +5°C° 0 mm 4 mps 715 mmHg 90%
    23:00 +4°C° 0 mm 4 mps 715 mmHg 92%

    Tomorrow, 25 October, Thursday

    Time Temperature Precipitation Wind Pressure Humidity
    00:00 +3°C° 0 mm 3 mps 715 mmHg 94%
    01:00 +3°C° 0 mm 3 mps 715 mmHg 94%
    02:00 +3°C° 0 mm 3 mps 715 mmHg 95%
    03:00 +4°C° 0 mm 2 mps 715 mmHg 95%
    04:00 +4°C° 0 mm 2 mps 715 mmHg 96%
    05:00 +3°C° 0 mm 2 mps 715 mmHg 96%
    06:00 +3°C° 0 mm 2 mps 715 mmHg 97%
    07:00 +3°C° 0 mm 2 mps 715 mmHg 95%
    08:00 +4°C° 0 mm 2 mps 715 mmHg 93%
    09:00 +4°C° 0 mm 2 mps 715 mmHg 91%
    10:00 +4°C° 0 mm 2 mps 715 mmHg 87%
    11:00 +4°C° 0 mm 3 mps 715 mmHg 84%
    12:00 +4°C° 0 mm 3 mps 715 mmHg 81%
    13:00 +4°C° 0.3 mm 4 mps 715 mmHg 81%
    14:00 +3°C° 0.3 mm 5 mps 715 mmHg 81%
    15:00 +3°C° 0.3 mm 6 mps 716 mmHg 81%
    16:00 +3°C° 0.4 mm 6 mps 716 mmHg 81%
    17:00 +2°C° 0.4 mm 7 mps 716 mmHg 80%
    18:00 +2°C° 0.4 mm 7 mps 717 mmHg 79%
    19:00 +2°C° 0.2 mm 7 mps 717 mmHg 79%
    20:00 0°C° 0.2 mm 7 mps 718 mmHg 79%
    21:00 0°C° 0.2 mm 7 mps 719 mmHg 79%
    22:00 0°C° 0.1 mm 7 mps 719 mmHg 79%
    23:00 -1°C° 0.1 mm 6 mps 720 mmHg 80%

    Day after tomorrow, 26 October, Friday

    Time Temperature Precipitation Wind Pressure Humidity
    00:00 -1°C° 0.1 mm 6 mps 720 mmHg 81%
    01:00 0°C° 0 mm 5 mps 721 mmHg 81%
    02:00 -1°C° 0 mm 5 mps 721 mmHg 81%
    03:00 -1°C° 0 mm 5 mps 722 mmHg 82%
    04:00 -1°C° 0 mm 4 mps 722 mmHg 80%
    05:00 -1°C° 0 mm 4 mps 723 mmHg 79%
    06:00 -1°C° 0 mm 4 mps 723 mmHg 78%
    07:00 0°C° 0 mm 4 mps 724 mmHg 78%
    08:00 0°C° 0 mm 4 mps 724 mmHg 78%
    09:00 0°C° 0 mm 4 mps 725 mmHg 78%
    10:00 +1°C° 0 mm 5 mps 725 mmHg 74%
    11:00 +1°C° 0 mm 5 mps 725 mmHg 70%
    12:00 +2°C° 0 mm 5 mps 726 mmHg 66%
    13:00 +2°C° 0 mm 5 mps 726 mmHg 65%
    14:00 +2°C° 0 mm 5 mps 726 mmHg 65%
    15:00 +3°C° 0 mm 5 mps 726 mmHg 64%
    16:00 +2°C° 0 mm 5 mps 726 mmHg 68%
    17:00 +3°C° 0 mm 4 mps 726 mmHg 72%
    18:00 +3°C° 0 mm 4 mps 727 mmHg 76%
    19:00 +1°C° 0.1 mm 4 mps 727 mmHg 78%
    20:00 +1°C° 0.1 mm 4 mps 727 mmHg 80%
    21:00 +1°C° 0.1 mm 4 mps 728 mmHg 83%
    22:00 +1°C° 0 mm 4 mps 728 mmHg 85%
    23:00 0°C° 0 mm 4 mps 729 mmHg 88%

    27 October, Saturday

    Time Temperature Precipitation Wind Pressure Humidity
    00:00 0°C° 0 mm 4 mps 729 mmHg 90%
    01:00 -1°C° 0 mm 4 mps 729 mmHg 91%
    02:00 0°C° 0 mm 3 mps 730 mmHg 92%
    03:00 0°C° 0 mm 3 mps 730 mmHg 93%
    04:00 -1°C° 0 mm 4 mps 730 mmHg 93%
    05:00 -1°C° 0 mm 4 mps 730 mmHg 93%
    06:00 -1°C° 0 mm 4 mps 730 mmHg 93%
    07:00 0°C° 0 mm 5 mps 730 mmHg 90%
    08:00 -1°C° 0 mm 6 mps 730 mmHg 87%
    09:00 0°C° 0 mm 7 mps 729 mmHg 84%
    10:00 +1°C° 0 mm 8 mps 729 mmHg 81%
    11:00 +2°C° 0 mm 9 mps 728 mmHg 78%
    12:00 +3°C° 0 mm 10 mps 728 mmHg 74%
    13:00 +5°C° 0.4 mm 10 mps 727 mmHg 75%
    14:00 +5°C° 0.4 mm 10 mps 726 mmHg 76%
    15:00 +6°C° 0.4 mm 10 mps 725 mmHg 77%
    16:00 +6°C° 0.8 mm 10 mps 726 mmHg 76%
    17:00 +6°C° 0.8 mm 9 mps 726 mmHg 76%
    18:00 +6°C° 0.8 mm 9 mps 726 mmHg 76%
    19:00 +5°C° 0.1 mm 9 mps 726 mmHg 76%
    20:00 +4°C° 0.1 mm 8 mps 727 mmHg 76%
    21:00 +3°C° 0.1 mm 7 mps 727 mmHg 76%
    22:00 +2°C° 0 mm 8 mps 728 mmHg 76%
    23:00 +2°C° 0 mm 8 mps 728 mmHg 77%

    28 October, Sunday

    Time Temperature Precipitation Wind Pressure Humidity
    00:00 +1°C° 0 mm 8 mps 729 mmHg 78%
    01:00 +1°C° 0 mm 8 mps 729 mmHg 78%
    02:00 +2°C° 0 mm 7 mps 730 mmHg 79%
    03:00 0°C° 0 mm 7 mps 731 mmHg 80%
    04:00 0°C° 0 mm 7 mps 732 mmHg 80%
    05:00 -1°C° 0 mm 6 mps 733 mmHg 81%
    06:00 -1°C° 0 mm 6 mps 734 mmHg 82%
    07:00 -1°C° 0 mm 6 mps 734 mmHg 80%
    08:00 0°C° 0 mm 5 mps 735 mmHg 79%
    09:00 0°C° 0 mm 5 mps 736 mmHg 77%
    10:00 +1°C° 0 mm 5 mps 737 mmHg 73%
    11:00 +1°C° 0 mm 5 mps 738 mmHg 68%
    12:00 +2°C° 0 mm 5 mps 738 mmHg 63%
    13:00 +3°C° 0 mm 4 mps 739 mmHg 62%
    14:00 +4°C° 0 mm 4 mps 739 mmHg 60%
    15:00 +4°C° 0 mm 4 mps 740 mmHg 59%
    16:00 +3°C° 0 mm 3 mps 740 mmHg 63%
    17:00 +3°C° 0 mm 2 mps 741 mmHg 68%
    18:00 +3°C° 0 mm 2 mps 741 mmHg 72%
    19:00 +2°C° 0 mm 2 mps 742 mmHg 74%
    20:00 +3°C° 0 mm 1 mps 742 mmHg 75%
    21:00 +3°C° 0 mm 1 mps 742 mmHg 76%
    22:00 +3°C° 0 mm 1 mps 743 mmHg 77%
    23:00 +3°C° 0 mm 1 mps 743 mmHg 77%

    29 October, Monday

    Time Temperature Precipitation Wind Pressure Humidity
    00:00 +2°C° 0 mm 1 mps 744 mmHg 78%
    01:00 +3°C° 0 mm 1 mps 744 mmHg 78%
    02:00 +3°C° 0 mm 1 mps 744 mmHg 78%
    03:00 +3°C° 0 mm 1 mps 744 mmHg 78%
    04:00 +2°C° 0.2 mm 2 mps 744 mmHg 79%
    05:00 +2°C° 0.2 mm 2 mps 744 mmHg 80%
    06:00 +2°C° 0.2 mm 2 mps 744 mmHg 81%
    07:00 +1°C° 0.5 mm 3 mps 744 mmHg 83%
    08:00 +1°C° 0.5 mm 3 mps 745 mmHg 85%
    09:00 +1°C° 0.5 mm 3 mps 745 mmHg 87%
    10:00 0°C° 0.3 mm 4 mps 745 mmHg 88%
    11:00 0°C° 0.3 mm 4 mps 744 mmHg 89%
    12:00 0°C° 0.3 mm 4 mps 744 mmHg 90%
    13:00 0°C° 0.1 mm 5 mps 744 mmHg 90%
    14:00 0°C° 0.1 mm 5 mps 743 mmHg 90%
    15:00 0°C° 0.1 mm 5 mps 743 mmHg 91%
    16:00 -1°C° 0.1 mm 6 mps 743 mmHg 91%
    17:00 -1°C° 0.1 mm 6 mps 743 mmHg 91%
    18:00 -1°C° 0.1 mm 6 mps 742 mmHg 91%
    19:00 -1°C° 0.1 mm 6 mps 742 mmHg 92%
    20:00 -1°C° 0.1 mm 6 mps 742 mmHg 92%
    21:00 -1°C° 0.1 mm 6 mps 741 mmHg 93%
    22:00 0°C° 0.1 mm 5 mps 741 mmHg 93%
    23:00 0°C° 0.1 mm 5 mps 741 mmHg 94%

    30 October, Tuesday

    Time Temperature Precipitation Wind Pressure Humidity
    00:00 +1°C° 0.1 mm 5 mps 741 mmHg 94%
    01:00 +1°C° 0 mm 5 mps 740 mmHg 95%
    02:00 +1°C° 0 mm 5 mps 740 mmHg 96%
    03:00 +1°C° 0 mm 5 mps 740 mmHg 96%
    04:00 +1°C° 0 mm 4 mps 739 mmHg 96%
    05:00 +3°C° 0 mm 4 mps 739 mmHg 97%
    06:00 +3°C° 0 mm 4 mps 739 mmHg 97%
    07:00 +3°C° 0 mm 4 mps 739 mmHg 96%
    08:00 +3°C° 0 mm 4 mps 739 mmHg 95%
    09:00 +4°C° 0 mm 4 mps 739 mmHg 94%
    10:00 +4°C° 0 mm 4 mps 739 mmHg 92%
    11:00 +5°C° 0 mm 4 mps 740 mmHg 90%
    12:00 +5°C° 0 mm 4 mps 740 mmHg 87%
    13:00 +6°C° 0 mm 4 mps 740 mmHg 87%
    14:00 +6°C° 0 mm 4 mps 740 mmHg 86%
    15:00 +6°C° 0 mm 4 mps 740 mmHg 85%
    16:00 +6°C° 0 mm 5 mps 740 mmHg 88%
    17:00 +5°C° 0 mm 5 mps 741 mmHg 90%
    18:00 +3°C° 0 mm 5 mps 741 mmHg 92%
    19:00 +3°C° 0 mm 5 mps 741 mmHg 92%
    20:00 +3°C° 0 mm 6 mps 742 mmHg 91%
    21:00 +3°C° 0 mm 6 mps 742 mmHg 91%
    22:00 +3°C° 0 mm 6 mps 742 mmHg 91%
    23:00 +2°C° 0 mm 6 mps 743 mmHg 91%
    Show more